Location: Unspecified
(0.0000°N, 0.0000°E)
Time: 01:12:02
(UTC+00:00)

Vanguard 3 - Pass Details

Date: 14 December 2017
Orbit: 508 x 3264 km, 33.4° (Epoch: 15 January)

Event Time Altitude Azimuth Distance (km) Brightness Sun altitude
Rises 22:19:26 0° 272° (W) 4,785 11.4 -57.1°
Reaches altitude 10° 22:22:38 10° 261° (W) 4,159 11.0 -57.7°
Maximum altitude 22:33:01 32° 202° (SSW) 3,640 10.5 -59.4°
Drops below altitude 10° 22:48:17 10° 146° (SE) 6,047 11.6 -61.7°
Sets 22:54:23 0° 137° (SE) 7,213 12.1 -62.5°
